Weather in Vivsya

Ukraine / Khmelnitsky District     49°09′17″N   26°18′51″E
temp.,
°C
wind,
m/s
gust,
m/s
humid.,
%
clouds,
%
prec.,
mm/h
press.,
hPa
HPBL,
m
13 april, tue
tue1300:00+10se33515 0.0 101928
03:00+8se22555 0.0 101815
06:00+7se22585 0.0 101814
09:00+11sse23545 0.0 1018216
12:00+15sse3341100 0.0 10171032
15:00+17ssw113799 0.0 10151811
18:00+16nnw1143100 0.0 1014889
21:00+10nnw61181100 0.1 1016498
14 april, wed
wed1400:00+8nnw6786100 0.0 1015368
03:00+7n5787100 0.0 1014288
06:00+6n3593100 0.0 1013175
09:00+9ese2384100 0.1 1013375
12:00+11s4573100 0.2 10121004
15:00+9w5478100 0.3 1013574
18:00+8wnw4477100 0.0 1013552
21:00+5nw5587100 0.0 1014387
15 april, thu
thu1500:00+3wnw5695100 1.4 1014323
03:00+3nw5793100 1.6 1014355
06:00+2nw5895100 0.0 1014373
09:00+2nw61096100 2.1 1014371
12:00+2nw61096100 3.3 1014374
15:00+2wnw61196100 5.3 1015430
18:00+1wnw71296100 0.6 1015440
21:00
16 april, fri
fri1600:00+1wnw71397100 1.9 1015448
03:00+1wnw71397100 3.6 1014465
06:00+1wnw71398100 2.5 1013443
09:00+1wnw71398100 5.8 1013401
12:00+1wnw61297100 1.3 1014418
15:00+2wnw71298100 2.4 1014439
18:00+2wnw91698100 1.6 1014403
21:00+4nw5898100 0.8 1015293
17 april, sat
sat1700:00+2nw5998100 0.0 1016347
03:00+3w359996 0.0 1016139
06:00+3wnw3799100 0.1 1017226
09:00+4wnw3499100 0.8 1018157
12:00+9nne237498 0.0 1018961
15:00+9nne2469100 0.2 1018665
18:00+6ene5885100 0.3 1019419
21:00+5ene378854 0.3 1020246